Location: Watson Lake
(60.1170°N, 128.8000°W)
Time: 05:19:26
(UTC-07:00)

Daily predictions for brighter satellites

Satellite Brightness Start Highest point End
(mag) Time Altitude Azimuth Time Altitude Azimuth Time Altitude Azimuth
Cosmos 2082 Rocket 4.1 00:17:32 10° NW 00:20:08 26° NNW 00:20:08 26° NNW
SL-16 R/B 4.3 00:58:27 24° NE 00:58:27 24° NE 01:03:10 10° NNW
Cosmos 2227 Rocket 4.3 01:50:09 21° NNE 01:50:09 21° NNE 01:52:43 10° NE
ATLAS 3B R/B 4.2 02:03:19 29° ENE 02:03:19 29° ENE 02:06:19 10° ENE
Cosmos 2297 Rocket 4.1 02:26:50 26° NNE 02:26:50 26° NNE 02:30:41 10° ENE
CZ-2D R/B 4.4 02:30:47 10° NE 02:33:12 17° ENE 02:33:12 17° ENE
SL-16 R/B 3.7 02:43:33 37° N 02:43:33 37° N 02:47:14 10° NNW
Cosmos 2263 Rocket 3.9 02:52:04 29° NNE 02:52:04 29° NNE 02:55:28 10° NE
NOSS 3-2 (C) 4.3 03:09:08 50° ENE 03:09:08 50° ENE 03:14:22 10° ENE
ARIANE 5 R/B 4.5 03:11:19 10° NE 03:14:15 23° ENE 03:14:15 23° ENE
Mayak 1.8 03:13:21 10° N 03:13:33 11° N 03:13:33 11° N
Cosmos 2278 Rocket 3.4 03:24:40 39° NNE 03:24:40 39° NNE 03:28:10 10° NE
ADEOS Rocket 3.5 03:19:04 10° NNE 03:25:53 77° NNE 03:25:53 77° NNE
Cosmos 2227 Rocket 3.6 03:32:00 30° N 03:33:25 34° NNE 03:38:36 10° E
CENTAUR R/B 3.0 03:38:25 63° E 03:38:25 63° E 03:44:48 10° ENE
NOSS 3-2 (A) 3.9 03:38:54 67° NE 03:38:54 67° NE 03:45:23 10° ENE
Cosmos 2369 Rocket 3.8 03:41:35 26° ESE 03:41:35 26° ESE 03:46:01 10° NE
Resurs 1-4 Rocket 3.2 03:40:27 10° NNE 03:44:27 42° ENE 03:44:27 42° ENE
ATLAS 3B R/B 2.9 03:50:35 65° N 03:50:35 65° N 03:57:19 10° ENE
COSMOS 2455 3.3 03:56:48 60° NE 03:56:48 60° NE 04:01:41 10° NE
S3M 4.4 03:58:46 59° N 03:58:46 59° N 04:03:57 10° NNE
Cosmos 2219 3.9 04:04:13 49° E 04:04:13 49° E 04:08:37 10° ESE
SeaSat 1 3.6 04:04:14 10° NE 04:07:35 40° NNE 04:07:35 40° NNE
IRS-1D 4.2 04:04:24 10° NNE 04:08:30 51° NE 04:08:30 51° NE
Cosmos 2297 Rocket 3.4 04:08:40 26° NNW 04:11:18 40° NNE 04:16:37 10° E
Cosmos 1844 Rocket 3.8 04:13:16 35° NNW 04:13:16 35° NNW 04:18:08 10° NE
Cosmos 1066 Rocket 4.5 04:13:42 68° ENE 04:13:42 68° ENE 04:19:05 10° NNE
CZ-2D R/B 2.6 04:10:07 10° NNE 04:14:31 59° NE 04:14:31 59° NE
Cosmos 2074 Rocket 4.0 04:09:51 10° NNW 04:16:11 78° ENE 04:16:29 76° ESE
ADEOS II 4.0 04:12:51 10° NNE 04:17:12 25° E 04:20:32 14° SE
Cosmos 1607 4.3 04:19:14 55° NNW 04:20:23 64° NNE 04:26:51 10° E
USA 238 DEB 3.9 04:20:58 58° NW 04:22:09 68° N 04:29:16 10° E
USA 238 3.9 04:21:06 58° NW 04:22:16 68° N 04:29:23 10° E
Cosmos 2297 4.0 04:23:15 61° N 04:23:15 61° N 04:28:13 10° NE
NPP 4.2 04:19:38 10° NNE 04:23:44 50° N 04:23:44 50° N
SL-16 R/B 4.1 04:28:39 22° NW 04:28:39 22° NW 04:30:55 10° NNW
Cosmos 2315 Rocket 3.9 04:34:50 80° SSW 04:35:14 90° W 04:41:41 10° NNE
Spot 4 Rocket 4.3 04:30:07 10° NNE 04:34:31 65° NNE 04:34:31 65° NNE
Cosmos 2263 Rocket 3.8 04:33:46 23° NNW 04:35:40 28° N 04:40:29 10° ENE
Cosmos 1943 Rocket 3.3 04:34:34 33° SE 04:35:48 37° ESE 04:40:53 10° NE
Cosmos 1777 Rocket 4.2 04:37:58 66° NNE 04:37:58 66° NNE 04:42:34 10° NNE
IRS-1C 4.4 04:36:40 10° NNE 04:41:08 57° NNW 04:41:08 57° NNW
Meteor 2-19 Rocket 4.4 04:36:20 10° NNW 04:42:32 84° ENE 04:45:34 33° SSE
Cosmos 2154 Rocket 4.1 04:43:07 10° NNW 04:49:32 76° ENE 04:55:52 10° SSE
Cosmos 1048 Rocket 4.1 04:48:05 32° NNW 04:50:28 71° NE 04:55:41 10° SE
Cosmos 158 Rocket 4.0 04:52:49 37° NNW 04:55:02 84° NE 05:00:28 10° SE
ARIANE 5 R/B 2.6 04:50:10 10° NNE 04:54:35 66° NNW 04:54:35 66° NNW
Cosmos 1626 Rocket 4.0 04:57:44 61° NNE 04:57:44 61° NNE 05:01:31 10° NNE
Lacrosse 5 2.4 04:58:32 47° SSE 04:58:32 47° SSE 05:03:06 10° E
NOSS 3-2 (C) 3.9 04:56:34 48° WNW 04:58:30 68° N 05:06:01 10° E
Cosmos 1602 Rocket 3.9 05:00:56 65° NNE 05:00:56 65° NNE 05:04:48 10° NNE
USA 215 3.8 04:55:38 10° ENE 05:01:55 47° SSE 05:03:41 39° S
ATLAS CENTAUR R/B 2.3 05:05:45 41° NE 05:05:45 41° NE 05:08:47 10° E
Cosmos 2278 Rocket 3.1 05:06:30 34° NW 05:07:18 35° NNW 05:12:32 10° NE
Cosmos 1610 Rocket 4.3 05:02:45 10° NNW 05:08:58 75° W 05:12:18 29° S
GEOS 3 Rocket 4.1 05:03:56 10° ENE 05:09:09 54° N 05:10:20 45° NW
Cosmos 968 Rocket 4.3 05:10:18 36° NW 05:10:18 36° NW 05:14:54 10° NNE
Cosmos 2327 Rocket 4.4 05:04:16 10° NNW 05:10:30 62° W 05:11:32 55° SW
Cosmos 2263 4.5 05:09:12 44° S 05:10:47 62° ESE 05:16:21 10° NE
ADEOS Rocket 4.2 05:04:53 10° NNE 05:11:28 37° NW 05:12:49 35° WNW
MOS 1 Rocket 4.2 05:09:35 10° N 05:14:13 41° NW 05:14:13 41° NW
Cosmos 2227 Rocket 2.3 05:13:53 17° NW 05:18:19 75° NE 05:24:01 10° SE
Meteor 1-21 4.2 05:20:21 50° SSW 05:21:58 80° WNW 05:27:52 10° NNE
Cosmos 962 Rocket 4.4 05:17:56 10° NNW 05:24:10 89° WSW 05:30:18 10° S
SJ 16-02 4.1 05:21:50 10° SE 05:24:46 18° E 05:27:41 10° NE
Cosmos 2369 Rocket 2.1 05:23:24 52° SW 05:24:51 89° SE 05:30:33 10° NE
Cosmos 2184 Rocket 4.1 05:19:03 10° NNW 05:25:03 48° W 05:25:06 48° W
Resurs 1-4 Rocket 2.5 05:20:28 10° NNE 05:25:30 44° WNW 05:25:31 44° WNW
Cosmos 2218 Rocket 4.5 05:20:33 10° N 05:26:43 62° ENE 05:32:57 10° SSE
Cosmos 1825 Rocket 4.0 05:24:57 30° SSE 05:27:00 61° E 05:31:25 10° NNE
Cosmos 1953 Rocket 4.5 05:24:02 16° SSE 05:27:13 47° E 05:31:24 10° NNE
CENTAUR R/B 2.9 05:25:36 41° W 05:28:18 71° N 05:36:08 10° ENE
NOSS 3-2 (A) 3.9 05:26:18 34° WNW 05:29:34 70° N 05:37:11 10° E
Cosmos 1809 Rocket 4.4 05:26:17 10° NNW 05:32:27 90° NNE 05:38:36 10° SSE
Cosmos 1378 4.0 05:34:45 24° SSE 05:36:46 49° E 05:40:27 10° NNE
CZ-2D R/B 3.7 05:33:45 10° N 05:38:01 55° WNW 05:38:01 55° WNW
Cosmos 1184 Rocket 4.4 05:39:50 28° N 05:39:50 28° N 05:41:42 10° N
ADEOS 3.8 05:35:05 10° NNE 05:40:09 50° WNW 05:40:51 47° W
ATLAS 3B R/B 2.7 05:37:50 27° WNW 05:41:54 79° NNE 05:48:32 10° ESE
COSMOS 2455 3.4 05:39:57 34° WNW 05:42:08 48° NNW 05:48:00 10° ENE
Cosmos 1269 Rocket 3.9 05:36:53 10° NW 05:42:11 69° WSW 05:47:27 10° SSE
Cosmos 1707 3.3 05:40:18 24° S 05:42:30 59° E 05:46:24 10° NNE
Cosmos 2341 Rocket 3.9 05:36:43 10° NNW 05:43:06 74° W 05:49:29 10° S
Cosmos 1340 Rocket 2.8 05:44:02 45° S 05:45:14 84° ESE 05:49:23 10° NNE
Cosmos 1932 4.5 05:41:36 25° WNW 05:45:39 89° SW 05:52:05 10° SE
SeaSat 1 3.8 05:41:52 10° NE 05:45:59 27° NNW 05:47:22 24° NW
Cosmos 2219 3.4 05:46:17 42° W 05:47:05 44° WSW 05:52:25 10° S
USA 116 4.0 05:43:12 10° SSE 05:47:10 74° ENE 05:51:42 10° NNW
IRS-1D 4.3 05:43:59 10° N 05:48:39 34° NW 05:48:59 34° WNW
Cosmos 1295 Rocket 4.4 05:46:10 10° NNW 05:52:26 71° W 05:58:43 10° S
Cosmos 2181 Rocket 4.4 05:49:00 10° S 05:55:06 64° E 06:01:11 10° NNE
CZ-2D R/B 2.9 05:50:35 10° N 05:55:13 32° NW 05:55:50 31° WNW
Meteor 2-21 Rocket 4.3 05:49:21 10° NNW 05:55:27 83° WSW 06:01:33 10° S
Cosmos-2242 2.9 05:51:27 10° NNW 05:55:41 60° W 05:59:56 10° S
Cosmos 2297 Rocket 2.1 05:50:31 12° NW 05:55:54 83° SW 06:01:34 10° SSE
ADEOS II 2.0 05:52:14 10° NNE 05:57:33 81° WNW 06:01:28 19° SSW
Cosmos 1656 Rocket 4.2 05:52:54 14° SSW 05:57:43 60° ESE 06:03:17 10° NE
Cosmos 1844 Rocket 4.2 05:54:56 16° NW 05:58:19 28° N 06:03:08 10° ENE
Okean O Rocket 1.9 05:55:51 10° NNE 06:00:15 66° ESE 06:04:39 10° S
Cosmos 1937 Rocket 3.5 05:57:25 26° SSW 06:00:30 90° WNW 06:05:51 10° NNE
CZ-4B R/B 2.6 05:57:45 10° NNE 06:01:26 83° ESE 06:03:12 29° SSW
Cosmos 1898 Rocket 3.4 05:59:42 34° SW 06:02:01 73° NW 06:07:14 10° NNE
MTI 3.8 05:59:09 10° SSE 06:02:25 80° ENE 06:05:41 10° NNW
Cosmos 2082 3.6 05:59:12 10° NW 06:04:55 77° SW 06:10:34 10° SSE
Cosmos 2150 Rocket 4.0 06:02:44 22° SSW 06:06:14 89° ESE 06:11:41 10° NNE
Cosmos 858 Rocket 4.4 06:04:08 28° SW 06:06:56 76° NW 06:12:14 10° NNE
EO 1 Del DPAF 3.3 06:03:09 10° SSE 06:07:00 81° ENE 06:10:53 10° NNW
PAYLOAD B 4.5 06:01:35 10° NNE 06:07:07 71° ESE 06:12:38 10° S
Cosmos 1607 4.0 06:03:22 21° WNW 06:07:53 70° SW 06:14:21 10° SE
Nadezhda 1 Rocket 4.0 06:03:54 16° SSW 06:09:08 63° WNW 06:15:26 10° N
Cosmos 494 Rocket 3.9 06:03:59 10° NNW 06:09:11 84° WSW 06:14:23 10° SSE
CZ-4B DEB 4.5 06:03:48 10° NNE 06:09:18 70° ESE 06:14:48 10° S
MOS 1-B 4.3 06:04:31 10° NNE 06:10:20 79° WNW 06:16:07 10° SSW
UNKNOWN OBJECT B 4.1 06:08:08 10° N 06:10:31 24° NW 06:10:31 24° NW
Cosmos 1842 4.4 06:12:51 27° NW 06:12:51 27° NW 06:15:48 10° N
Meteor 1-16 Rocket 4.4 06:07:59 10° NNW 06:13:24 50° W 06:18:56 10° S
Cosmos 1758 Rocket 3.5 06:10:01 16° SSW 06:13:35 74° WNW 06:18:08 10° NNE
USA 238 DEB 3.7 06:08:25 20° WNW 06:13:36 90° S 06:20:46 10° ESE
Meteor PRIRODA 4.3 06:09:51 10° NNE 06:13:36 58° ESE 06:17:18 10° S
USA 238 3.8 06:08:33 20° WNW 06:13:43 90° E 06:20:54 10° ESE
Landsat 4 3.7 06:11:57 10° S 06:15:40 53° WSW 06:19:21 10° NNW
Meteor 2-1 Rocket 4.3 06:10:16 10° NNW 06:16:16 83° WSW 06:22:09 10° S
DNEPR-1 R/B 4.2 06:15:18 26° NW 06:17:25 48° N 06:21:55 10° E
Okean-O 4.4 06:13:25 10° NNE 06:17:28 33° E 06:21:30 10° SSE
IRS-1C Rocket 4.4 06:12:13 10° NNE 06:17:31 68° ESE 06:22:47 10° S
Aureole 3 Rocket 4.4 06:19:24 15° NNW 06:19:24 15° NNW 06:20:14 10° NNW
Cosmos 1943 Rocket 2.1 06:16:06 26° WSW 06:19:18 70° NW 06:24:56 10° NE
Cosmos 990 Rocket 3.9 06:15:55 21° SW 06:19:22 76° NW 06:24:34 10° NNE
Meteor 2-5 Rocket 3.9 06:13:57 10° S 06:19:49 80° ESE 06:25:36 10° NNE
Intercosmos 24 4.3 06:14:00 10° NNW 06:19:52 62° W 06:24:00 10° S
CZ-4B R/B 3.3 06:15:31 10° NNE 06:20:59 77° ESE 06:26:31 10° SSW
Cosmos 2263 Rocket 3.4 06:15:42 10° NW 06:21:02 39° NNE 06:26:18 10° E
Meteor 1-28 Rocket 3.2 06:22:54 10° S 06:26:42 60° WSW 06:30:31 10° NNW
Cosmos 2221 2.8 06:23:22 10° NNW 06:27:47 72° ENE 06:32:11 10° SSE
Cosmos 2366 rocket 3.9 06:24:30 10° NNW 06:30:37 68° W 06:36:44 10° S
COSMO-SKYMED 1 2.5 06:28:40 10° SSE 06:33:02 79° WSW 06:37:25 10° NNW
RUBIN 8/PSLV 4.4 06:29:14 10° NNE 06:33:35 76° WNW 06:37:52 10° SSW
ARIANE 5 R/B 3.8 06:29:54 10° N 06:33:41 22° NW 06:34:55 20° WNW
Cosmos 2251 Rocket 3.5 06:29:48 10° NW 06:35:12 75° WSW 06:40:34 10° SSE
CZ-2C R/B 3.0 06:33:02 10° N 06:36:14 80° E 06:42:56 10° S
Cosmos 1842 Rocket 3.6 06:32:42 10° NNW 06:37:01 55° W 06:41:16 10° S
CZ-4B R/B 4.2 06:32:59 10° NNE 06:37:25 81° ESE 06:41:56 10° SSW
Lacrosse 5 2.1 06:37:44 23° WSW 06:40:52 63° S 06:45:54 10° ESE
DMSP B5D1-3 4.5 06:36:19 10° SSE 06:41:27 90° W 06:46:36 10° NNW
PSLV R/B 4.1 06:38:16 10° N 06:41:48 41° WNW 06:44:02 20° SW
Cosmos 2298 Rocket 4.2 06:38:19 17° SW 06:42:18 57° NW 06:47:36 10° NNE
CZ-2C R/B 4.2 06:37:57 10° SSW 06:42:24 39° W 06:46:48 10° NNW
SL-8 Rocket 4.2 06:36:59 10° NNW 06:43:01 49° W 06:49:03 10° SSW
ATLAS CENTAUR R/B 1.0 06:42:01 22° WNW 06:44:21 78° SW 06:48:10 10° SE
USA 215 3.4 06:39:03 10° E 06:45:35 68° S 06:51:02 16° WSW
GEOS 3 Rocket 4.1 06:41:36 10° E 06:46:50 59° NNE 06:51:26 14° WNW
NOSS 3-2 (C) 3.9 06:44:01 15° WNW 06:50:03 83° NNE 06:57:53 10° ESE
Cosmos 1356 Rocket 3.5 06:47:50 10° SSW 06:52:07 60° WNW 06:56:25 10° NNE
Cosmos 2278 Rocket 3.6 06:48:21 11° NW 06:52:54 28° N 06:57:46 10° ENE
PSLV R/B 4.0 06:52:15 10° N 06:56:14 39° WNW 07:00:14 10° SW
Cosmos 1674 3.5 06:53:47 10° S 06:57:25 53° E 07:01:05 10° NNE
Cosmos 1726 2.0 06:55:16 10° NNW 06:58:58 89° WSW 07:02:39 10° SSE
Cosmos 2227 Rocket 2.8 06:56:59 10° NW 07:02:03 34° WSW 07:07:05 10° S
SJ 16-02 1.4 06:58:20 10° SSW 07:02:44 84° ESE 07:07:10 10° NNE
Resurs 1-4 Rocket 3.8 07:01:07 10° N 07:04:15 16° NW 07:06:36 12° WNW
Meteor 1-31 Rocket 2.8 07:00:43 10° N 07:04:29 58° WNW 07:08:14 10° SSW
Cosmos 1953 Rocket 4.2 07:01:22 10° SW 07:05:18 33° WNW 07:09:15 10° N
Cosmos 1821 Rocket 4.1 07:00:30 10° NNW 07:06:55 89° ENE 07:13:21 10° SSE
Cosmos 1934 Rocket 4.3 07:01:24 10° NNW 07:07:45 76° ENE 07:13:57 10° SSE
Cosmos 2369 Rocket 2.9 07:05:13 15° W 07:09:30 38° NNW 07:14:47 10° NE
Cosmos 2218 Rocket 4.4 07:06:23 10° NNW 07:12:02 38° W 07:17:45 10° SSW
Cosmos 1378 4.2 07:09:31 12° WSW 07:12:25 26° WNW 07:15:41 10° N
NOSS 3-1 (C) 3.9 07:08:37 10° SW 07:14:41 71° SE 07:21:43 10° ENE
Meteor 1-24 Rocket 3.8 07:09:50 10° SSW 07:15:48 70° WNW 07:21:37 10° NNE
Cosmos 1356 3.5 07:12:44 10° SSW 07:16:11 58° WNW 07:19:41 10° NNE
Okean 3 Rocket 4.3 07:11:55 10° S 07:16:18 59° E 07:20:41 10° NNE
USA 229 DEB 3.8 07:10:38 10° WSW 07:17:32 88° NNW 07:24:41 10° ENE
USA 229 3.8 07:10:43 10° WSW 07:17:38 88° NNW 07:24:46 10° ENE
USA 81 4.3 07:13:36 10° SW 07:18:42 47° WNW 07:23:50 10° N
Cosmos 1707 3.9 07:15:33 10° WSW 07:18:46 24° WNW 07:22:03 10° N
Cosmos 1076 Rocket 4.4 07:14:46 10° S 07:19:01 55° E 07:23:15 10° NNE
CENTAUR R/B 3.1 07:12:47 11° WNW 07:19:42 76° NNE 07:27:50 10° ESE
GP-B 3.5 07:15:26 10° SSE 07:19:52 72° E 07:24:19 10° N
NOSS 3-2 (A) 3.9 07:13:48 10° WNW 07:20:50 79° SSW 07:28:42 10° SE
SKYMED 2 4.2 07:17:21 10° SSW 07:21:20 34° W 07:25:21 10° NNW
NOSS 3-1 (A) 4.1 07:15:28 10° SW 07:21:30 64° SE 07:28:27 10° ENE
Cosmos 1340 Rocket 4.3 07:19:41 12° W 07:22:17 20° NW 07:25:25 10° N
SeaSat 1 4.1 07:18:42 10° NE 07:22:28 22° N 07:26:14 10° NW
Cosmos 2228 Rocket 3.8 07:20:45 10° N 07:25:21 62° ENE 07:29:53 10° SSE
Cosmos 1908 4.0 07:22:40 10° NNW 07:26:06 31° W 07:29:30 10° SSW
COSMOS 2455 3.6 07:23:19 10° WNW 07:29:08 46° NNE 07:34:58 10° E
KORONAS-FOTON 3.9 07:27:42 10° S 07:31:30 82° ESE 07:35:21 10° NNE
Feng Yun 1-1 Rocket 4.3 07:26:30 10° NNE 07:32:04 79° WNW 07:37:46 10° SSW
ATLAS 3B R/B 2.9 07:25:50 10° WNW 07:32:26 53° SW 07:38:46 10° SSE
CZ-2D R/B 4.0 07:31:47 10° N 07:33:56 13° NNW 07:36:05 10° NW
Cosmos 372 Rocket 4.0 07:29:21 10° SW 07:34:34 68° NW 07:39:52 10° NNE
CZ-4B R/B 4.2 07:33:39 10° N 07:36:11 18° NW 07:38:41 10° W
Okean O Rocket 2.6 07:32:37 10° N 07:36:22 28° NW 07:40:06 10° WSW
ADEOS II 3.2 07:32:30 10° N 07:36:41 24° NW 07:40:51 10° W
PAYLOAD A 3.9 07:33:18 10° NNE 07:38:03 89° ESE 07:42:49 10° SSW
Cosmos 2297 Rocket 3.3 07:34:51 10° NW 07:39:17 24° WSW 07:43:41 10° SSW
Cosmos 1605 Rocket 4.1 07:34:53 10° NNW 07:41:05 86° E 07:47:18 10° SSE
Cosmos 2181 Rocket 4.5 07:35:22 10° SW 07:41:05 38° WNW 07:46:48 10° N
Cosmos 1656 Rocket 4.0 07:36:00 10° WSW 07:41:32 49° NW 07:47:01 10° NE
Cosmos 1190 Rocket 4.3 07:37:06 10° NNW 07:42:28 76° NE 07:47:47 10° SE
Meteor 2-2 Rocket 4.2 07:37:00 10° NNW 07:42:39 72° WSW 07:48:21 10° S
Cosmos 1328 Rocket 3.5 07:38:20 10° NNW 07:42:43 87° WSW 07:47:02 10° S
Cosmos 1937 Rocket 4.4 07:38:24 10° W 07:43:08 32° NW 07:47:52 10° NNE
Nadezhda 3 Rocket 4.0 07:37:11 10° SSW 07:43:30 84° WNW 07:49:49 10° NNE
Cosmos 1844 Rocket 3.8 07:38:19 10° NW 07:43:38 39° NNE 07:48:55 10° E
IDEFIX/ARIANE 42P 2.6 07:40:12 10° NNE 07:45:30 88° WNW 07:50:45 10° SSW
Cosmos 1656 4.5 07:42:18 10° SSW 07:47:54 59° ESE 07:53:28 10° NE
Thor Agena Rocket 4.0 07:44:21 10° S 07:49:20 43° W 07:54:19 10° NNW
Iridium 4 Rocket 3.8 07:43:37 10° N 07:49:29 81° W 07:54:58 10° S
Cosmos 1455 2.9 07:45:46 10° N 07:49:35 59° ENE 07:53:21 10° SSE
Cosmos 2227 4.4 07:44:16 10° NW 07:49:55 59° WSW 07:55:33 10° SSE
Meteor 2-10 4.4 07:46:31 10° NNW 07:51:42 49° W 07:57:03 10° S
Radarsat Rocket 4.5 07:46:15 10° NNE 07:52:56 85° WNW 08:00:31 10° SSW
